Tracking 19245 objects as of 18-Aug-2018
HD Live streaming from Space Station
objects crossing your sky now

FENGYUN 1C DEB

Track FENGYUN 1C DEB now!
10-day predictions


NORAD ID: 29920
Int'l Code: 1999-025HS
Perigee: 813.9 km
Apogee: 1,015.5 km
Inclination: 98.4 °
Period: 103.1 minutes
Semi major axis: 7285 km
RCS: 0.0211 m2 (small)
Launch date: May 10, 1999
Source: People's Republic of China (PRC)
Launch site: Taiyaun Space Center, China (TSC)

Note: This is SATELLITE DEBRIS
aabbcc
Your satellite tracking list
Your tracking list is empty




NASA's NSSDC Master Catalog

Two Line Element Set (TLE):
1 29920U 99025HS  18229.38178163  .00000377  00000-0  28019-3 0  9996
2 29920  98.4071 262.6198 0138318 218.0207 275.8415 13.96037945589338
Source of the keplerian elements: AFSPC